Regional Weather Roundup
Issued by NWS Goodland, KS

Home | Current Version | Previous Version | Text Only | Print | Product List | Glossary Off
Versions: 1 2 3 4 5 6 7 8 9 10 11 12 13 14 15 16 17 18 19 20 21 22 23 24 25 26 27 28 29 30 31 32 33 34 35 36 37 38 39 40 41 42 43 44 45 46 47 48 49 50

000
ASUS43 KGLD 050559
RWRGLD

GOODLAND FORECAST AREA HOURLY WEATHER ROUNDUP
NATIONAL WEATHER SERVICE GOODLAND KS
1200 AM MDT SUN JUL 05 2015

...OFFICIAL OBSERVATIONS...

CITY           SKY/WX    TMP DP  RH WIND       PRES   REMARKS
GOODLAND KS    PTCLDY    75  60  59 S16       29.91F
HILL CITY KS   CLEAR     79  65  62 SE8       29.90F
IMPERIAL NEB   CLOUDY    78  62  57 SE12      29.89F
MCCOOK NEB     PTCLDY    77  62  59 SE8       29.88F
AKRON CO       MOCLDY    71  52  50 W10       29.95F
BURLINGTON CO  MOCLDY    71  54  54 S9        29.94F
LIMON CO       PTCLDY    61  55  81 CALM      30.02F
$$

...UNOFFICIAL OBSERVATIONS...

CITY           SKY/WX    TMP DP  RH WIND       PRES   REMARKS
COLBY KS       CLEAR     79  66  65 SE21      29.91F
GOVE KS          N/A     77  32  19 MISG        N/A
NORTON KS      CLEAR     75  59  57 SE9       29.89S
SHARON SPRINGS   N/A     75  62  63 S12         N/A
KIT CARSON CO    N/A     74  56  53 MISG        N/A
$$



USA.gov is the U.S. government's official web portal to all federal, state and local government web resources and services.